contact:dominique.lefevre@mio.osupytheas.fr, maurice.libes@osupytheas.fr, didier.mallarino@osupytheas.fr
Project:EMSO http://www.emso-fr.org/EMSO-France
Depth: 2436.0 m
Title:EMSO Ligure Ouest : Data MII capteur OXYGEN
DateTime,Latitude,Longitude,Optode-Type,Optode_Serial,Oxygen,Saturation_Oxygen,Temperature
DateTime,Latitude,Longitude,Optode-Type,Optode_Serial,µmol.l-1,%,degC
2017-11-24T00:01:00,42.805,6.029,4330,1995,197.728,60.465,13.286
2017-11-24T00:04:00,42.805,6.029,4330,1995,197.803,60.488,13.286
2017-11-24T00:07:00,42.805,6.029,4330,1995,197.788,60.483,13.286
2017-11-24T00:10:00,42.805,6.029,4330,1995,197.860,60.505,13.286
2017-11-24T00:13:00,42.805,6.029,4330,1995,197.811,60.490,13.285
2017-11-24T00:16:00,42.805,6.029,4330,1995,197.836,60.498,13.286
2017-11-24T00:19:00,42.805,6.029,4330,1995,197.847,60.501,13.286
2017-11-24T00:22:00,42.805,6.029,4330,1995,197.803,60.488,13.286
2017-11-24T00:25:00,42.805,6.029,4330,1995,197.881,60.512,13.286
2017-11-24T00:28:00,42.805,6.029,4330,1995,197.861,60.506,13.286
2017-11-24T00:31:00,42.805,6.029,4330,1995,197.896,60.516,13.286
2017-11-24T00:34:00,42.805,6.029,4330,1995,197.947,60.532,13.286
2017-11-24T00:37:00,42.805,6.029,4330,1995,197.906,60.519,13.286
2017-11-24T00:40:00,42.805,6.029,4330,1995,197.876,60.510,13.286
2017-11-24T00:43:00,42.805,6.029,4330,1995,197.935,60.528,13.286
2017-11-24T00:46:00,42.805,6.029,4330,1995,197.833,60.497,13.286
2017-11-24T00:49:00,42.805,6.029,4330,1995,197.773,60.478,13.286
2017-11-24T00:52:00,42.805,6.029,4330,1995,197.737,60.468,13.286
2017-11-24T00:55:00,42.805,6.029,4330,1995,197.713,60.460,13.286
2017-11-24T00:58:00,42.805,6.029,4330,1995,197.729,60.465,13.286
2017-11-24T01:01:00,42.805,6.029,4330,1995,197.690,60.453,13.286
2017-11-24T01:04:00,42.805,6.029,4330,1995,197.782,60.481,13.286
2017-11-24T01:07:00,42.805,6.029,4330,1995,197.715,60.461,13.286
2017-11-24T01:10:00,42.805,6.029,4330,1995,197.694,60.455,13.286
2017-11-24T01:13:00,42.805,6.029,4330,1995,197.613,60.430,13.286
2017-11-24T01:16:00,42.805,6.029,4330,1995,197.679,60.450,13.286
2017-11-24T01:19:00,42.805,6.029,4330,1995,197.723,60.463,13.286
2017-11-24T01:22:00,42.805,6.029,4330,1995,197.694,60.455,13.286
2017-11-24T01:25:00,42.805,6.029,4330,1995,197.670,60.447,13.286
2017-11-24T01:28:00,42.805,6.029,4330,1995,197.794,60.485,13.286
2017-11-24T01:31:00,42.805,6.029,4330,1995,197.763,60.476,13.286
2017-11-24T01:34:00,42.805,6.029,4330,1995,197.762,60.476,13.286
2017-11-24T01:37:00,42.805,6.029,4330,1995,197.808,60.490,13.286
2017-11-24T01:40:00,42.805,6.029,4330,1995,197.786,60.483,13.286
2017-11-24T01:43:00,42.805,6.029,4330,1995,197.862,60.506,13.286
2017-11-24T01:46:00,42.805,6.029,4330,1995,197.879,60.512,13.286
2017-11-24T01:49:00,42.805,6.029,4330,1995,197.881,60.512,13.286
2017-11-24T01:52:00,42.805,6.029,4330,1995,197.871,60.510,13.286
2017-11-24T01:55:00,42.805,6.029,4330,1995,197.851,60.504,13.287
2017-11-24T01:58:00,42.805,6.029,4330,1995,197.878,60.512,13.286
2017-11-24T02:01:00,42.805,6.029,4330,1995,197.846,60.502,13.286
2017-11-24T02:04:00,42.805,6.029,4330,1995,197.863,60.507,13.286
2017-11-24T02:07:00,42.805,6.029,4330,1995,197.834,60.498,13.286
2017-11-24T02:10:00,42.805,6.029,4330,1995,197.844,60.501,13.286
2017-11-24T02:13:00,42.805,6.029,4330,1995,197.834,60.498,13.286
2017-11-24T02:16:00,42.805,6.029,4330,1995,197.822,60.495,13.286
2017-11-24T02:19:00,42.805,6.029,4330,1995,197.817,60.493,13.286
2017-11-24T02:22:00,42.805,6.029,4330,1995,197.769,60.478,13.286
2017-11-24T02:25:00,42.805,6.029,4330,1995,197.716,60.462,13.286
2017-11-24T02:28:00,42.805,6.029,4330,1995,197.782,60.482,13.286
2017-11-24T02:31:00,42.805,6.029,4330,1995,197.740,60.469,13.286
2017-11-24T02:34:00,42.805,6.029,4330,1995,197.761,60.476,13.287
2017-11-24T02:37:00,42.805,6.029,4330,1995,197.695,60.455,13.286
2017-11-24T02:40:00,42.805,6.029,4330,1995,197.691,60.455,13.286
2017-11-24T02:43:00,42.805,6.029,4330,1995,197.561,60.415,13.287
2017-11-24T02:46:00,42.805,6.029,4330,1995,197.519,60.402,13.286
2017-11-24T02:49:00,42.805,6.029,4330,1995,197.576,60.419,13.286
2017-11-24T02:52:00,42.805,6.029,4330,1995,197.579,60.420,13.286
2017-11-24T02:55:00,42.805,6.029,4330,1995,197.579,60.420,13.287
2017-11-24T02:58:00,42.805,6.029,4330,1995,197.476,60.389,13.287
2017-11-24T03:01:00,42.805,6.029,4330,1995,197.495,60.395,13.286
2017-11-24T03:04:00,42.805,6.029,4330,1995,197.471,60.387,13.286
2017-11-24T03:07:00,42.805,6.029,4330,1995,197.453,60.382,13.287
2017-11-24T03:10:00,42.805,6.029,4330,1995,197.381,60.360,13.287
2017-11-24T03:13:00,42.805,6.029,4330,1995,197.362,60.354,13.287
2017-11-24T03:16:00,42.805,6.029,4330,1995,197.325,60.343,13.287
2017-11-24T03:19:00,42.805,6.029,4330,1995,197.336,60.346,13.287
2017-11-24T03:22:00,42.805,6.029,4330,1995,197.301,60.335,13.287
2017-11-24T03:25:00,42.805,6.029,4330,1995,197.330,60.344,13.286
2017-11-24T03:28:00,42.805,6.029,4330,1995,197.364,60.355,13.286
2017-11-24T03:31:00,42.805,6.029,4330,1995,197.409,60.368,13.286
2017-11-24T03:34:00,42.805,6.029,4330,1995,197.401,60.366,13.286
2017-11-24T03:37:00,42.805,6.029,4330,1995,197.374,60.358,13.287
2017-11-24T03:40:00,42.805,6.029,4330,1995,197.365,60.355,13.287
2017-11-24T03:43:00,42.805,6.029,4330,1995,197.366,60.355,13.286
2017-11-24T03:46:00,42.805,6.029,4330,1995,197.373,60.357,13.286
2017-11-24T03:49:00,42.805,6.029,4330,1995,197.311,60.339,13.287
2017-11-24T03:52:00,42.805,6.029,4330,1995,197.300,60.335,13.287
2017-11-24T03:55:00,42.805,6.029,4330,1995,197.289,60.332,13.286
2017-11-24T03:58:00,42.805,6.029,4330,1995,197.337,60.347,13.287
2017-11-24T04:01:00,42.805,6.029,4330,1995,197.338,60.346,13.286
2017-11-24T04:04:00,42.805,6.029,4330,1995,197.290,60.332,13.287
2017-11-24T04:07:00,42.805,6.029,4330,1995,197.329,60.344,13.287
2017-11-24T04:10:00,42.805,6.029,4330,1995,197.308,60.338,13.287
2017-11-24T04:13:00,42.805,6.029,4330,1995,197.299,60.335,13.287
2017-11-24T04:16:00,42.805,6.029,4330,1995,197.251,60.320,13.286
2017-11-24T04:19:00,42.805,6.029,4330,1995,197.303,60.336,13.287
2017-11-24T04:22:00,42.805,6.029,4330,1995,197.240,60.317,13.287
2017-11-24T04:25:00,42.805,6.029,4330,1995,197.233,60.315,13.287
2017-11-24T04:28:00,42.805,6.029,4330,1995,197.224,60.312,13.287
2017-11-24T04:31:00,42.805,6.029,4330,1995,197.195,60.303,13.287
2017-11-24T04:34:00,42.805,6.029,4330,1995,197.150,60.289,13.287
2017-11-24T04:37:00,42.805,6.029,4330,1995,197.140,60.287,13.287
2017-11-24T04:40:00,42.805,6.029,4330,1995,197.225,60.312,13.287
2017-11-24T04:43:00,42.805,6.029,4330,1995,197.142,60.287,13.287
2017-11-24T04:46:00,42.805,6.029,4330,1995,197.197,60.304,13.286
2017-11-24T04:49:00,42.805,6.029,4330,1995,197.183,60.299,13.287
2017-11-24T04:52:00,42.805,6.029,4330,1995,197.131,60.284,13.287
2017-11-24T04:55:00,42.805,6.029,4330,1995,197.206,60.306,13.287
2017-11-24T04:58:00,42.805,6.029,4330,1995,197.139,60.286,13.286
2017-11-24T05:01:00,42.805,6.029,4330,1995,197.068,60.264,13.287
2017-11-24T05:04:00,42.805,6.029,4330,1995,197.083,60.269,13.286
2017-11-24T05:07:00,42.805,6.029,4330,1995,197.080,60.268,13.286
2017-11-24T05:10:00,42.805,6.029,4330,1995,197.068,60.264,13.287
2017-11-24T05:13:00,42.805,6.029,4330,1995,197.060,60.262,13.287
2017-11-24T05:16:00,42.805,6.029,4330,1995,197.029,60.253,13.287
2017-11-24T05:19:00,42.805,6.029,4330,1995,197.058,60.261,13.286
2017-11-24T05:22:00,42.805,6.029,4330,1995,196.941,60.226,13.287
2017-11-24T05:25:00,42.805,6.029,4330,1995,196.956,60.230,13.287
2017-11-24T05:28:00,42.805,6.029,4330,1995,197.000,60.244,13.287
2017-11-24T05:31:00,42.805,6.029,4330,1995,196.912,60.216,13.287
2017-11-24T05:34:00,42.805,6.029,4330,1995,196.991,60.241,13.287
2017-11-24T05:37:00,42.805,6.029,4330,1995,196.935,60.224,13.287
2017-11-24T05:40:00,42.805,6.029,4330,1995,196.929,60.222,13.287
2017-11-24T05:43:00,42.805,6.029,4330,1995,196.832,60.192,13.287
2017-11-24T05:46:00,42.805,6.029,4330,1995,196.751,60.168,13.287
2017-11-24T05:49:00,42.805,6.029,4330,1995,196.616,60.126,13.287
2017-11-24T05:52:00,42.805,6.029,4330,1995,196.701,60.152,13.287
2017-11-24T05:55:00,42.805,6.029,4330,1995,196.718,60.157,13.287
2017-11-24T05:58:00,42.805,6.029,4330,1995,196.694,60.150,13.287
2017-11-24T06:01:00,42.805,6.029,4330,1995,196.689,60.149,13.287
2017-11-24T06:04:00,42.805,6.029,4330,1995,196.598,60.121,13.287
2017-11-24T06:07:00,42.805,6.029,4330,1995,196.478,60.084,13.287
2017-11-24T06:10:00,42.805,6.029,4330,1995,196.564,60.110,13.287
2017-11-24T06:13:00,42.805,6.029,4330,1995,196.649,60.136,13.287
2017-11-24T06:16:00,42.805,6.029,4330,1995,196.619,60.127,13.287
2017-11-24T06:19:00,42.805,6.029,4330,1995,196.537,60.102,13.287
2017-11-24T06:22:00,42.805,6.029,4330,1995,196.453,60.076,13.287
2017-11-24T06:25:00,42.805,6.029,4330,1995,196.482,60.086,13.287
2017-11-24T06:28:00,42.805,6.029,4330,1995,196.405,60.062,13.287
2017-11-24T06:31:00,42.805,6.029,4330,1995,196.343,60.043,13.287
2017-11-24T06:34:00,42.805,6.029,4330,1995,196.475,60.083,13.287
2017-11-24T06:37:00,42.805,6.029,4330,1995,196.410,60.064,13.287
2017-11-24T06:40:00,42.805,6.029,4330,1995,196.423,60.067,13.287
2017-11-24T06:43:00,42.805,6.029,4330,1995,196.376,60.054,13.287
2017-11-24T06:46:00,42.805,6.029,4330,1995,196.514,60.096,13.287
2017-11-24T06:49:00,42.805,6.029,4330,1995,196.556,60.108,13.287
2017-11-24T06:52:00,42.805,6.029,4330,1995,196.506,60.093,13.287
2017-11-24T06:55:00,42.805,6.029,4330,1995,196.461,60.079,13.287
2017-11-24T06:58:00,42.805,6.029,4330,1995,196.493,60.089,13.287
2017-11-24T07:01:00,42.805,6.029,4330,1995,196.454,60.077,13.287
2017-11-24T07:04:00,42.805,6.029,4330,1995,196.387,60.056,13.287
2017-11-24T07:07:00,42.805,6.029,4330,1995,196.446,60.075,13.287
2017-11-24T07:10:00,42.805,6.029,4330,1995,196.378,60.054,13.287
2017-11-24T07:13:00,42.805,6.029,4330,1995,196.260,60.018,13.287
2017-11-24T07:16:00,42.805,6.029,4330,1995,196.300,60.031,13.288
2017-11-24T07:19:00,42.805,6.029,4330,1995,196.305,60.031,13.287
2017-11-24T07:22:00,42.805,6.029,4330,1995,196.323,60.037,13.287
2017-11-24T07:25:00,42.805,6.029,4330,1995,196.307,60.032,13.287
2017-11-24T07:28:00,42.805,6.029,4330,1995,196.219,60.006,13.287
2017-11-24T07:31:00,42.805,6.029,4330,1995,196.219,60.006,13.287
2017-11-24T07:34:00,42.805,6.029,4330,1995,196.140,59.981,13.287
2017-11-24T07:37:00,42.805,6.029,4330,1995,196.182,59.994,13.287
2017-11-24T07:40:00,42.805,6.029,4330,1995,196.132,59.980,13.288
2017-11-24T07:43:00,42.805,6.029,4330,1995,196.154,59.986,13.288
2017-11-24T07:46:00,42.805,6.029,4330,1995,196.211,60.002,13.287
2017-11-24T07:49:00,42.805,6.029,4330,1995,196.192,59.997,13.287
2017-11-24T07:52:00,42.805,6.029,4330,1995,196.137,59.981,13.287
2017-11-24T07:55:00,42.805,6.029,4330,1995,196.127,59.978,13.288
2017-11-24T07:58:00,42.805,6.029,4330,1995,196.060,59.957,13.288
2017-11-24T08:01:00,42.805,6.029,4330,1995,195.993,59.936,13.287
2017-11-24T08:04:00,42.805,6.029,4330,1995,196.048,59.953,13.287
2017-11-24T08:07:00,42.805,6.029,4330,1995,196.104,59.970,13.287
2017-11-24T08:10:00,42.805,6.029,4330,1995,196.069,59.960,13.288
2017-11-24T08:13:00,42.805,6.029,4330,1995,196.070,59.961,13.288
2017-11-24T08:16:00,42.805,6.029,4330,1995,196.033,59.949,13.287
2017-11-24T08:19:00,42.805,6.029,4330,1995,195.938,59.920,13.288
2017-11-24T08:22:00,42.805,6.029,4330,1995,196.008,59.941,13.287
2017-11-24T08:25:00,42.805,6.029,4330,1995,196.059,59.957,13.287
2017-11-24T08:28:00,42.805,6.029,4330,1995,196.029,59.948,13.288
2017-11-24T08:31:00,42.805,6.029,4330,1995,196.081,59.963,13.287
2017-11-24T08:34:00,42.805,6.029,4330,1995,196.055,59.955,13.287
2017-11-24T08:37:00,42.805,6.029,4330,1995,196.165,59.989,13.288
2017-11-24T08:40:00,42.805,6.029,4330,1995,196.121,59.975,13.287
2017-11-24T08:43:00,42.805,6.029,4330,1995,196.118,59.975,13.287
2017-11-24T08:46:00,42.805,6.029,4330,1995,196.101,59.969,13.287
2017-11-24T08:49:00,42.805,6.029,4330,1995,195.942,59.921,13.288
2017-11-24T08:52:00,42.805,6.029,4330,1995,195.979,59.931,13.287
2017-11-24T08:55:00,42.805,6.029,4330,1995,196.015,59.943,13.287
2017-11-24T08:58:00,42.805,6.029,4330,1995,195.959,59.925,13.287
2017-11-24T09:01:00,42.805,6.029,4330,1995,195.827,59.885,13.287
2017-11-24T09:04:00,42.805,6.029,4330,1995,195.795,59.877,13.288
2017-11-24T09:07:00,42.805,6.029,4330,1995,195.738,59.859,13.288
2017-11-24T09:10:00,42.805,6.029,4330,1995,195.347,59.740,13.288
2017-11-24T09:13:00,42.805,6.029,4330,1995,195.237,59.705,13.287
2017-11-24T09:16:00,42.805,6.029,4330,1995,195.146,59.677,13.287
2017-11-24T09:19:00,42.805,6.029,4330,1995,195.324,59.733,13.288
2017-11-24T09:22:00,42.805,6.029,4330,1995,195.462,59.775,13.288
2017-11-24T09:25:00,42.805,6.029,4330,1995,195.684,59.844,13.289
2017-11-24T09:28:00,42.805,6.029,4330,1995,195.590,59.813,13.287
2017-11-24T09:31:00,42.805,6.029,4330,1995,195.621,59.824,13.288
2017-11-24T09:34:00,42.805,6.029,4330,1995,195.674,59.839,13.287
2017-11-24T09:37:00,42.805,6.029,4330,1995,195.745,59.862,13.288
2017-11-24T09:40:00,42.805,6.029,4330,1995,195.734,59.857,13.287
2017-11-24T09:43:00,42.805,6.029,4330,1995,195.788,59.875,13.288
2017-11-24T09:46:00,42.805,6.029,4330,1995,195.774,59.870,13.288
2017-11-24T09:49:00,42.805,6.029,4330,1995,195.765,59.867,13.287
2017-11-24T09:52:00,42.805,6.029,4330,1995,195.750,59.863,13.288
2017-11-24T09:55:00,42.805,6.029,4330,1995,195.817,59.883,13.287
2017-11-24T09:58:00,42.805,6.029,4330,1995,195.781,59.872,13.288
2017-11-24T10:01:00,42.805,6.029,4330,1995,195.622,59.823,13.287
2017-11-24T10:04:00,42.805,6.029,4330,1995,195.638,59.828,13.288
2017-11-24T10:07:00,42.805,6.029,4330,1995,195.682,59.841,13.287
2017-11-24T10:10:00,42.805,6.029,4330,1995,195.688,59.844,13.287
2017-11-24T10:13:00,42.805,6.029,4330,1995,195.750,59.862,13.288
2017-11-24T10:16:00,42.805,6.029,4330,1995,195.777,59.870,13.287
2017-11-24T10:19:00,42.805,6.029,4330,1995,195.752,59.863,13.287
2017-11-24T10:22:00,42.805,6.029,4330,1995,195.750,59.863,13.288
2017-11-24T10:25:00,42.805,6.029,4330,1995,195.742,59.860,13.288
2017-11-24T10:28:00,42.805,6.029,4330,1995,195.676,59.840,13.288
2017-11-24T10:31:00,42.805,6.029,4330,1995,195.609,59.819,13.287
2017-11-24T10:34:00,42.805,6.029,4330,1995,195.520,59.793,13.288
2017-11-24T10:37:00,42.805,6.029,4330,1995,195.562,59.804,13.287
2017-11-24T10:40:00,42.805,6.029,4330,1995,195.604,59.818,13.288
2017-11-24T10:43:00,42.805,6.029,4330,1995,195.722,59.853,13.287
2017-11-24T10:46:00,42.805,6.029,4330,1995,195.793,59.875,13.287
2017-11-24T10:49:00,42.805,6.029,4330,1995,195.774,59.869,13.287
2017-11-24T10:52:00,42.805,6.029,4330,1995,195.758,59.864,13.287
2017-11-24T10:55:00,42.805,6.029,4330,1995,195.779,59.871,13.287
2017-11-24T10:58:00,42.805,6.029,4330,1995,195.723,59.854,13.288
2017-11-24T11:01:00,42.805,6.029,4330,1995,195.697,59.846,13.287
2017-11-24T11:04:00,42.805,6.029,4330,1995,195.684,59.842,13.288
2017-11-24T11:07:00,42.805,6.029,4330,1995,195.658,59.834,13.288
2017-11-24T11:10:00,42.805,6.029,4330,1995,195.694,59.846,13.288
2017-11-24T11:13:00,42.805,6.029,4330,1995,195.615,59.821,13.288
2017-11-24T11:16:00,42.805,6.029,4330,1995,195.621,59.822,13.287
2017-11-24T11:19:00,42.805,6.029,4330,1995,195.651,59.832,13.287
2017-11-24T11:22:00,42.805,6.029,4330,1995,195.684,59.842,13.287
2017-11-24T11:25:00,42.805,6.029,4330,1995,195.700,59.848,13.288
2017-11-24T11:28:00,42.805,6.029,4330,1995,195.754,59.863,13.287
2017-11-24T11:31:00,42.805,6.029,4330,1995,195.718,59.852,13.287
2017-11-24T11:34:00,42.805,6.029,4330,1995,195.661,59.834,13.287
2017-11-24T11:37:00,42.805,6.029,4330,1995,195.683,59.841,13.287
2017-11-24T11:40:00,42.805,6.029,4330,1995,195.745,59.861,13.287
2017-11-24T11:43:00,42.805,6.029,4330,1995,195.687,59.843,13.287
2017-11-24T11:46:00,42.805,6.029,4330,1995,195.599,59.816,13.288
2017-11-24T11:49:00,42.805,6.029,4330,1995,195.507,59.788,13.287
2017-11-24T11:52:00,42.805,6.029,4330,1995,195.522,59.792,13.287
2017-11-24T11:55:00,42.805,6.029,4330,1995,195.486,59.782,13.287
2017-11-24T11:58:00,42.805,6.029,4330,1995,195.523,59.793,13.287
2017-11-24T12:01:00,42.805,6.029,4330,1995,195.424,59.763,13.288
2017-11-24T12:04:00,42.805,6.029,4330,1995,195.478,59.779,13.287
2017-11-24T12:07:00,42.805,6.029,4330,1995,195.722,59.854,13.288
2017-11-24T12:10:00,42.805,6.029,4330,1995,195.768,59.867,13.287
2017-11-24T12:13:00,42.805,6.029,4330,1995,195.812,59.881,13.287
2017-11-24T12:16:00,42.805,6.029,4330,1995,195.759,59.865,13.288
2017-11-24T12:19:00,42.805,6.029,4330,1995,195.669,59.837,13.287
2017-11-24T12:22:00,42.805,6.029,4330,1995,195.611,59.820,13.288
2017-11-24T12:25:00,42.805,6.029,4330,1995,195.728,59.855,13.287
2017-11-24T12:28:00,42.805,6.029,4330,1995,195.772,59.869,13.287
2017-11-24T12:31:00,42.805,6.029,4330,1995,195.642,59.829,13.287
2017-11-24T12:34:00,42.805,6.029,4330,1995,195.540,59.797,13.287
2017-11-24T12:37:00,42.805,6.029,4330,1995,195.650,59.831,13.287
2017-11-24T12:40:00,42.805,6.029,4330,1995,195.583,59.810,13.287
2017-11-24T12:43:00,42.805,6.029,4330,1995,195.678,59.839,13.287
2017-11-24T12:46:00,42.805,6.029,4330,1995,195.864,59.897,13.288
2017-11-24T12:49:00,42.805,6.029,4330,1995,195.886,59.903,13.287
2017-11-24T12:52:00,42.805,6.029,4330,1995,195.925,59.915,13.287
2017-11-24T12:55:00,42.805,6.029,4330,1995,195.821,59.884,13.287
2017-11-24T12:58:00,42.805,6.029,4330,1995,195.844,59.890,13.287
2017-11-24T13:01:00,42.805,6.029,4330,1995,195.754,59.863,13.287
2017-11-24T13:04:00,42.805,6.029,4330,1995,195.830,59.886,13.287
2017-11-24T13:07:00,42.805,6.029,4330,1995,196.100,59.969,13.287
2017-11-24T13:10:00,42.805,6.029,4330,1995,196.040,59.950,13.287
2017-11-24T13:13:00,42.805,6.029,4330,1995,196.118,59.974,13.286
2017-11-24T13:16:00,42.805,6.029,4330,1995,196.184,59.994,13.287
2017-11-24T13:19:00,42.805,6.029,4330,1995,196.183,59.994,13.286
2017-11-24T13:22:00,42.805,6.029,4330,1995,196.219,60.005,13.287
2017-11-24T13:25:00,42.805,6.029,4330,1995,196.259,60.016,13.286
2017-11-24T13:28:00,42.805,6.029,4330,1995,196.175,59.991,13.287
2017-11-24T13:31:00,42.805,6.029,4330,1995,196.155,59.986,13.287
2017-11-24T13:34:00,42.805,6.029,4330,1995,196.296,60.028,13.287
2017-11-24T13:37:00,42.805,6.029,4330,1995,196.330,60.038,13.286
2017-11-24T13:40:00,42.805,6.029,4330,1995,196.257,60.017,13.287
2017-11-24T13:43:00,42.805,6.029,4330,1995,196.246,60.014,13.287
2017-11-24T13:46:00,42.805,6.029,4330,1995,196.155,59.985,13.287
2017-11-24T13:49:00,42.805,6.029,4330,1995,196.332,60.039,13.286
2017-11-24T13:52:00,42.805,6.029,4330,1995,196.364,60.049,13.286
2017-11-24T13:55:00,42.805,6.029,4330,1995,196.387,60.056,13.287
2017-11-24T13:58:00,42.805,6.029,4330,1995,196.445,60.074,13.286
2017-11-24T14:01:00,42.805,6.029,4330,1995,196.415,60.064,13.286
2017-11-24T14:04:00,42.805,6.029,4330,1995,196.416,60.065,13.287
2017-11-24T14:07:00,42.805,6.029,4330,1995,196.319,60.035,13.286
2017-11-24T14:10:00,42.805,6.029,4330,1995,196.363,60.048,13.286
2017-11-24T14:13:00,42.805,6.029,4330,1995,196.310,60.032,13.286
2017-11-24T14:16:00,42.805,6.029,4330,1995,196.310,60.033,13.287
2017-11-24T14:19:00,42.805,6.029,4330,1995,196.304,60.030,13.286
2017-11-24T14:22:00,42.805,6.029,4330,1995,196.427,60.068,13.287
2017-11-24T14:25:00,42.805,6.029,4330,1995,196.395,60.058,13.286
2017-11-24T14:28:00,42.805,6.029,4330,1995,196.376,60.052,13.286
2017-11-24T14:31:00,42.805,6.029,4330,1995,196.349,60.044,13.286
2017-11-24T14:34:00,42.805,6.029,4330,1995,196.486,60.086,13.286
2017-11-24T14:37:00,42.805,6.029,4330,1995,196.399,60.059,13.286
2017-11-24T14:40:00,42.805,6.029,4330,1995,196.365,60.049,13.286
2017-11-24T14:43:00,42.805,6.029,4330,1995,196.296,60.028,13.286
2017-11-24T14:46:00,42.805,6.029,4330,1995,196.291,60.026,13.286
2017-11-24T14:49:00,42.805,6.029,4330,1995,196.328,60.038,13.286
2017-11-24T14:52:00,42.805,6.029,4330,1995,196.443,60.073,13.286
2017-11-24T14:55:00,42.805,6.029,4330,1995,196.499,60.090,13.287
2017-11-24T14:58:00,42.805,6.029,4330,1995,196.342,60.042,13.286
2017-11-24T15:01:00,42.805,6.029,4330,1995,196.245,60.013,13.287
2017-11-24T15:04:00,42.805,6.029,4330,1995,196.368,60.050,13.286
2017-11-24T15:07:00,42.805,6.029,4330,1995,196.368,60.050,13.286
2017-11-24T15:10:00,42.805,6.029,4330,1995,196.406,60.062,13.286
2017-11-24T15:13:00,42.805,6.029,4330,1995,196.428,60.068,13.286
2017-11-24T15:16:00,42.805,6.029,4330,1995,196.441,60.072,13.286
2017-11-24T15:19:00,42.805,6.029,4330,1995,196.372,60.051,13.287
2017-11-24T15:22:00,42.805,6.029,4330,1995,196.340,60.042,13.287
2017-11-24T15:25:00,42.805,6.029,4330,1995,196.352,60.045,13.286
2017-11-24T15:28:00,42.805,6.029,4330,1995,196.235,60.009,13.286
2017-11-24T15:31:00,42.805,6.029,4330,1995,196.275,60.021,13.286
2017-11-24T15:34:00,42.805,6.029,4330,1995,196.283,60.024,13.286
2017-11-24T15:37:00,42.805,6.029,4330,1995,196.193,59.996,13.286
2017-11-24T15:40:00,42.805,6.029,4330,1995,196.391,60.057,13.286
2017-11-24T15:43:00,42.805,6.029,4330,1995,196.356,60.046,13.286
2017-11-24T15:46:00,42.805,6.029,4330,1995,196.390,60.057,13.286
2017-11-24T15:49:00,42.805,6.029,4330,1995,196.487,60.087,13.286
2017-11-24T15:52:00,42.805,6.029,4330,1995,196.514,60.095,13.286
2017-11-24T15:55:00,42.805,6.029,4330,1995,196.366,60.050,13.287
2017-11-24T15:58:00,42.805,6.029,4330,1995,196.495,60.089,13.286
2017-11-24T16:01:00,42.805,6.029,4330,1995,196.526,60.098,13.286
2017-11-24T16:04:00,42.805,6.029,4330,1995,196.566,60.110,13.286
2017-11-24T16:07:00,42.805,6.029,4330,1995,196.467,60.080,13.287
2017-11-24T16:10:00,42.805,6.029,4330,1995,196.420,60.066,13.286
2017-11-24T16:13:00,42.805,6.029,4330,1995,196.251,60.015,13.287
2017-11-24T16:16:00,42.805,6.029,4330,1995,196.242,60.011,13.287
2017-11-24T16:19:00,42.805,6.029,4330,1995,196.405,60.062,13.287
2017-11-24T16:22:00,42.805,6.029,4330,1995,196.395,60.058,13.286
2017-11-24T16:25:00,42.805,6.029,4330,1995,196.314,60.034,13.287
2017-11-24T16:28:00,42.805,6.029,4330,1995,196.415,60.064,13.286
2017-11-24T16:31:00,42.805,6.029,4330,1995,196.340,60.042,13.287
2017-11-24T16:34:00,42.805,6.029,4330,1995,196.395,60.059,13.287
2017-11-24T16:37:00,42.805,6.029,4330,1995,196.363,60.049,13.287
2017-11-24T16:40:00,42.805,6.029,4330,1995,196.337,60.041,13.287
2017-11-24T16:43:00,42.805,6.029,4330,1995,196.346,60.043,13.287
2017-11-24T16:46:00,42.805,6.029,4330,1995,196.472,60.082,13.286
2017-11-24T16:49:00,42.805,6.029,4330,1995,196.495,60.089,13.287
2017-11-24T16:52:00,42.805,6.029,4330,1995,196.499,60.091,13.287
2017-11-24T16:55:00,42.805,6.029,4330,1995,196.439,60.072,13.286
2017-11-24T16:58:00,42.805,6.029,4330,1995,196.385,60.055,13.286
2017-11-24T17:01:00,42.805,6.029,4330,1995,196.351,60.045,13.287
2017-11-24T17:04:00,42.805,6.029,4330,1995,196.286,60.025,13.287
2017-11-24T17:07:00,42.805,6.029,4330,1995,196.400,60.059,13.286
2017-11-24T17:10:00,42.805,6.029,4330,1995,196.327,60.038,13.287
2017-11-24T17:13:00,42.805,6.029,4330,1995,196.318,60.035,13.286
2017-11-24T17:16:00,42.805,6.029,4330,1995,196.265,60.019,13.287
2017-11-24T17:19:00,42.805,6.029,4330,1995,196.226,60.007,13.287
2017-11-24T17:21:59,42.805,6.029,4330,1995,196.239,60.011,13.286
2017-11-24T17:24:59,42.805,6.029,4330,1995,196.202,59.999,13.286
2017-11-24T17:27:59,42.805,6.029,4330,1995,196.299,60.029,13.287
2017-11-24T17:30:59,42.805,6.029,4330,1995,196.308,60.032,13.287
2017-11-24T17:33:59,42.805,6.029,4330,1995,196.339,60.042,13.287
2017-11-24T17:36:59,42.805,6.029,4330,1995,196.326,60.037,13.286
2017-11-24T17:39:59,42.805,6.029,4330,1995,196.374,60.052,13.287
2017-11-24T17:42:59,42.805,6.029,4330,1995,196.356,60.046,13.286
2017-11-24T17:45:59,42.805,6.029,4330,1995,196.366,60.050,13.287
2017-11-24T17:48:59,42.805,6.029,4330,1995,196.282,60.023,13.286
2017-11-24T17:51:59,42.805,6.029,4330,1995,196.208,60.001,13.286
2017-11-24T17:54:59,42.805,6.029,4330,1995,196.151,59.983,13.286
2017-11-24T17:57:59,42.805,6.029,4330,1995,196.220,60.005,13.286
2017-11-24T18:00:59,42.805,6.029,4330,1995,196.273,60.021,13.287
2017-11-24T18:03:59,42.805,6.029,4330,1995,196.387,60.056,13.286
2017-11-24T18:06:59,42.805,6.029,4330,1995,196.420,60.065,13.286